User: anonymous   Login
Location: Jodlow
(50.1500°N, 16.7500°E)
Time: 22:55:58
(UTC+02:00)
Language:

O/OREOS (USA 219) - Orbit

View from above orbital plane
View from above orbital plane
View from above satellite
View from above satellite

Ground track
Ground track

The orbit data is extracted from the following two-line orbital elements,

1 37224U 10062C   24147.54587309  .00003312  00000-0  37378-3 0  9996
2 37224  71.9725 335.5516 0014095  52.9683 307.2771 14.87178638  4612
Epoch (UTC): 26 May 2024 13:06:03
Eccentricity: 0.0014095
inclination: 71.9725°
perigee height: 597 km
apogee height: 616 km
right ascension of ascending node: 335.5516°
argument of perigee: 52.9683°
revolutions per day: 14.87178638
mean anomaly at epoch: 307.2771°
orbit number at epoch: 461

The dashed part of the orbit path shows where the satellite is in the earth's shadow,  

DLR